Regional Weather Roundup
Issued by NWS

Home | Current Version | Previous Version | Graphics & Text | Print | Product List | Glossary On
Versions: 1 2 3 4 5 6 7 8 9 10 11 12 13 14 15 16 17 18 19 20 21 22 23 24 25 26 27 28 29 30 31 32 33 34 35 36 37 38 39 40 41 42 43 44 45 46 47 48 49 50
000
ASUS45 KSLC 281710
RWRUT

UTAH REGIONAL WEATHER ROUNDUP
NATIONAL WEATHER SERVICE SALT LAKE CITY UT
1100 AM MDT TUE JUL 28 2015

UTZ001>011-023>025-281800-

NORTHERN UTAH

CITY           SKY/WX    TMP DP  RH WIND       PRES   REMARKS
BRIGHAM CITY   SUNNY     65  25  21 CALM      30.30S
HILL AFB       SUNNY     65  26  23 N7        30.30S
LOGAN            N/A     61  36  39 VRB3      30.30F
OGDEN          SUNNY     67  30  25 NW8       30.28S
PROVO AIRPORT  SUNNY     66  36  32 NW6       30.28F
SALT LAKE CITY SUNNY     69  22  16 N12       30.28R
VERNAL         SUNNY     71  33  24 SE5       30.24S
WENDOVER       SUNNY     68  27  21 NE12      30.29S
HEBER CITY     SUNNY     63  32  31 W3        30.30F
WEST JORDAN    SUNNY     68  25  19 NW12G20   30.30R

$$

UTZ012>022-026-027-281800-

SOUTHERN/CENTRAL UTAH

CITY           SKY/WX    TMP DP  RH WIND       PRES   REMARKS
BLANDING       SUNNY     80  30  16 SE8       30.28R
BRYCE CANYON   SUNNY     68  34  28 NE10      30.35S
CEDAR CITY     SUNNY     71  34  25 VRB6      30.25F
DELTA          SUNNY     71  26  18 N13       30.25S
HANKSVILLE     SUNNY     79  30  17 CALM      30.16F
MILFORD        SUNNY     73  31  21 N18G25    30.24F
MOAB/CYNLANDS  SUNNY     80  33  18 VRB3      30.13F
PRICE          SUNNY     74  25  16 VRB3      30.23S
ST GEORGE      SUNNY     82  37  20 NW9       30.06F
KANAB          SUNNY     81  36  19 CALM      30.21F

$$

REGIONAL REPORTS     COLORADO/ARIZONA

CITY           SKY/WX    TMP DP  RH WIND       PRES   REMARKS
CRAIG, CO      SUNNY     66  35  31 NW6       30.30S
GRAND JUNCTION SUNNY     77  34  21 W7        30.17S
RIFLE          SUNNY     72  35  25 CALM      30.22F
MONTROSE       SUNNY     73  36  25 VRB6      30.25S
CORTEZ         SUNNY     80  33  18 SE3       30.20F
PAGE, AZ       SUNNY     82  31  15 CALM      30.12S
GRAND CANYON   SUNNY     76  29  17 S8        30.28F
KINGMAN        SUNNY     88  31  13 SW5       30.05R
FLAGSTAFF      SUNNY     74  41  30 S8        30.31S

$$

REGIONAL REPORTS    NEVADA/IDAHO/WYOMING

CITY           SKY/WX    TMP DP  RH WIND       PRES   REMARKS
LAS VEGAS, NV  SUNNY     92  31  11 NE12      29.93S
ELY            SUNNY     64  26  23 N10       30.31F
ELKO           SUNNY     66  27  23 E7        30.29F
POCATELLO, ID  MOSUNNY   61  38  42 CALM      30.34S
BURLEY         SUNNY     60  36  40 CALM      30.31S
EVANSTON, WY   SUNNY     59  12  15 VRB6G17   30.36S
ROCK SPRINGS   SUNNY    N/A N/A N/A MISG      30.33S
KEMMERER       SUNNY     55  23  28 W15G21    30.36S

$$


USA.gov is the U.S. government's official web portal to all federal, state and local government web resources and services.